Location: Seattle
(47.6064°N, 122.3308°W)
Time: 05:17:52
(UTC-07:00)

UKube-1 - Visible Passes

Search period start: 02 April 2023 00:00
Search period end: 12 April 2023 00:00
Orbit: 602 x 609 km, 98.4° (Epoch: 02 April)

Date Brightness Start Highest point End Pass type
(mag) Time Alt. Az. Time Alt. Az. Time Alt. Az.
02 Apr ? 01:25:41 10° N 01:26:17 13° NNW 01:26:17 13° NNW visible
03 Apr ? 00:02:23 10° NNE 00:02:28 10° NNE 00:02:28 10° NNE visible
03 Apr ? 01:38:45 10° NNW 01:39:20 13° NNW 01:39:20 13° NNW visible
04 Apr ? 00:15:04 10° NNE 00:15:30 13° NNE 00:15:30 13° NNE visible
04 Apr ? 01:51:55 10° NNW 01:52:22 12° NNW 01:52:22 12° NNW visible
05 Apr ? 00:27:48 10° NNE 00:28:32 15° NNE 00:28:32 15° NNE visible
05 Apr ? 02:05:16 10° NNW 02:05:23 10° NNW 02:05:23 10° NNW visible
06 Apr ? 00:40:34 10° N 00:41:32 17° N 00:41:32 17° N visible
07 Apr ? 00:53:22 10° N 00:54:32 18° N 00:54:32 18° N visible
08 Apr ? 01:06:12 10° N 01:07:30 19° N 01:07:30 19° N visible
08 Apr ? 23:43:25 10° NE 23:43:36 11° NE 23:43:36 11° NE visible
09 Apr ? 01:19:04 10° N 01:20:28 19° NNW 01:20:28 19° NNW visible
09 Apr ? 23:55:55 10° NNE 23:56:34 14° NE 23:56:34 14° NE visible
10 Apr ? 01:32:00 10° N 01:33:25 18° NNW 01:33:25 18° NNW visible
11 Apr ? 00:08:27 10° NNE 00:09:30 17° NNE 00:09:30 17° NNE visible
11 Apr ? 01:44:58 10° NNW 01:46:22 16° NNW 01:46:22 16° NNW visible
